TimeEST,TemperatureF,Dew PointF,Humidity,Sea Level PressureIn,VisibilityMPH,Wind Direction,Wind SpeedMPH,Gust SpeedMPH,PrecipitationIn,Events,Conditions,WindDirDegrees,DateUTC
12:13 AM,42.1,36.1,79,29.74,4.0,SSW,20.7,26.5,0.01,,Overcast,210,2013-02-19 05:13:00
12:34 AM,41.2,36.5,83,29.73,7.0,SSW,17.3,21.9,0.01,,Overcast,200,2013-02-19 05:34:00
12:54 AM,41.9,36.3,81,29.73,5.0,SSW,23.0,34.5,0.02,,Overcast,210,2013-02-19 05:54:00
1:13 AM,41.9,36.5,81,29.71,7.0,SSW,20.7,31.1,0.01,,Overcast,200,2013-02-19 06:13:00
1:34 AM,41.7,36.0,80,29.69,10.0,SSW,23.0,32.2,0.01,,Overcast,200,2013-02-19 06:34:00
1:54 AM,41.5,35.8,80,29.68,10.0,SSW,18.4,27.6,0.01,,Overcast,200,2013-02-19 06:54:00
2:13 AM,41.9,35.8,79,29.67,10.0,SSW,20.7,31.1,N/A,,Overcast,200,2013-02-19 07:13:00
2:34 AM,41.9,36.1,80,29.66,10.0,SSW,24.2,32.2,N/A,,Overcast,200,2013-02-19 07:34:00
2:54 AM,41.2,36.5,83,29.66,7.0,SSW,23.0,32.2,N/A,,Overcast,200,2013-02-19 07:54:00
3:13 AM,41.0,36.7,85,29.64,10.0,SSW,20.7,27.6,N/A,,Overcast,200,2013-02-19 08:13:00
3:34 AM,41.2,36.5,83,29.63,10.0,SSW,23.0,33.4,N/A,,Overcast,200,2013-02-19 08:34:00
3:54 AM,41.2,36.5,83,29.63,10.0,SSW,23.0,31.1,N/A,,Overcast,200,2013-02-19 08:54:00
4:13 AM,41.2,36.5,83,29.62,7.0,SSW,23.0,29.9,N/A,,Overcast,210,2013-02-19 09:13:00
4:34 AM,41.2,36.7,84,29.62,10.0,SSW,23.0,28.8,N/A,,Overcast,210,2013-02-19 09:34:00
4:54 AM,41.5,36.9,83,29.61,10.0,SSW,23.0,32.2,N/A,,Overcast,210,2013-02-19 09:54:00
5:34 AM,39.2,34.5,83,29.65,4.0,West,20.7,34.5,N/A,,Overcast,280,2013-02-19 10:34:00
5:54 AM,33.6,31.1,90,29.66,4.0,West,18.4,26.5,0.01,,Overcast,280,2013-02-19 10:54:00
6:14 AM,32.9,31.1,93,29.67,1.5,West,12.7,-,0.01,,Overcast,270,2013-02-19 11:14:00
6:33 AM,32.5,31.1,94,29.68,1.2,West,11.5,-,0.02,,Overcast,260,2013-02-19 11:33:00
6:54 AM,32.7,31.6,96,29.68,4.0,West,15.0,-,0.02,,Overcast,270,2013-02-19 11:54:00
7:14 AM,32.9,31.1,93,29.69,10.0,West,20.7,27.6,N/A,,Overcast,270,2013-02-19 12:14:00
7:33 AM,32.9,30.2,90,29.70,10.0,West,19.6,26.5,N/A,,Overcast,270,2013-02-19 12:33:00
7:54 AM,32.4,29.5,89,29.71,7.0,West,19.6,23.0,N/A,,Overcast,280,2013-02-19 12:54:00
8:14 AM,31.8,28.2,87,29.73,10.0,West,19.6,28.8,N/A,,Overcast,270,2013-02-19 13:14:00
8:33 AM,30.7,26.6,85,29.74,10.0,West,20.7,29.9,N/A,,Overcast,270,2013-02-19 13:33:00
8:54 AM,30.2,26.4,86,29.75,10.0,West,18.4,26.5,N/A,,Overcast,270,2013-02-19 13:54:00
9:13 AM,29.7,24.8,82,29.76,10.0,West,18.4,31.1,N/A,,Overcast,260,2013-02-19 14:13:00
9:34 AM,28.4,22.5,78,29.77,10.0,West,23.0,32.2,N/A,,Overcast,270,2013-02-19 14:34:00
9:54 AM,28.0,22.3,79,29.78,10.0,West,18.4,23.0,N/A,,Overcast,270,2013-02-19 14:54:00
10:13 AM,28.0,22.8,81,29.78,10.0,West,17.3,21.9,N/A,,Overcast,260,2013-02-19 15:13:00
10:34 AM,28.4,22.5,78,29.78,10.0,West,26.5,35.7,N/A,,Overcast,270,2013-02-19 15:34:00
10:54 AM,28.8,22.1,76,29.79,10.0,West,17.3,26.5,N/A,,Overcast,270,2013-02-19 15:54:00
11:14 AM,27.5,21.6,78,29.81,4.0,West,28.8,35.7,N/A,,Overcast,280,2013-02-19 16:14:00
11:34 AM,26.4,19.8,76,29.81,7.0,West,24.2,31.1,N/A,,Overcast,280,2013-02-19 16:34:00
11:54 AM,27.3,19.2,72,29.81,10.0,West,23.0,29.9,N/A,,Overcast,270,2013-02-19 16:54:00
12:14 PM,27.9,19.2,70,29.80,10.0,West,25.3,32.2,N/A,,Overcast,260,2013-02-19 17:14:00
12:34 PM,28.8,20.7,72,29.80,10.0,West,27.6,32.2,N/A,,Overcast,260,2013-02-19 17:34:00
12:54 PM,28.4,20.5,72,29.80,10.0,West,23.0,32.2,N/A,,Overcast,260,2013-02-19 17:54:00
1:14 PM,28.4,21.6,76,29.80,7.0,West,26.5,34.5,N/A,,Overcast,260,2013-02-19 18:14:00
1:34 PM,27.5,21.2,77,29.81,3.0,West,26.5,35.7,N/A,,Overcast,270,2013-02-19 18:34:00
1:54 PM,26.6,18.7,72,29.82,10.0,West,27.6,38.0,N/A,,Overcast,270,2013-02-19 18:54:00
2:14 PM,26.6,17.8,69,29.83,10.0,West,21.9,34.5,N/A,,Overcast,280,2013-02-19 19:14:00
2:34 PM,26.6,18.9,73,29.83,7.0,West,20.7,31.1,N/A,,Overcast,270,2013-02-19 19:34:00
2:54 PM,26.2,19.2,75,29.84,5.0,West,21.9,28.8,N/A,,Overcast,260,2013-02-19 19:54:00
3:14 PM,26.4,19.6,75,29.85,5.0,West,16.1,26.5,N/A,,Overcast,270,2013-02-19 20:14:00
3:34 PM,26.2,19.4,75,29.86,4.0,West,17.3,31.1,N/A,,Overcast,270,2013-02-19 20:34:00
3:54 PM,25.7,18.9,75,29.87,5.0,West,26.5,34.5,N/A,,Overcast,270,2013-02-19 20:54:00
4:14 PM,25.3,19.9,80,29.88,2.0,West,24.2,28.8,N/A,,Overcast,260,2013-02-19 21:14:00
4:34 PM,24.8,17.2,73,29.89,7.0,West,29.9,38.0,N/A,,Overcast,270,2013-02-19 21:34:00
4:54 PM,24.6,16.9,72,29.90,10.0,West,26.5,33.4,N/A,,Overcast,280,2013-02-19 21:54:00
5:14 PM,24.6,17.1,73,29.91,10.0,West,17.3,27.6,N/A,,Overcast,280,2013-02-19 22:14:00
5:34 PM,24.4,17.2,74,29.93,5.0,West,13.8,28.8,N/A,,Overcast,270,2013-02-19 22:34:00
5:54 PM,24.1,18.5,79,29.94,1.8,West,13.8,23.0,N/A,,Overcast,270,2013-02-19 22:54:00
6:14 PM,23.9,17.8,77,29.95,4.0,West,13.8,26.5,N/A,,Overcast,270,2013-02-19 23:14:00
7:34 PM,21.7,14.2,73,29.98,10.0,West,18.4,26.5,N/A,,Overcast,280,2013-02-20 00:34:00
7:54 PM,21.9,14.9,74,29.99,10.0,WNW,16.1,23.0,N/A,,Overcast,290,2013-02-20 00:54:00
8:14 PM,21.4,14.7,75,30.00,7.0,West,19.6,26.5,N/A,,Overcast,280,2013-02-20 01:14:00
8:53 PM,21.7,14.5,74,30.00,10.0,West,17.3,25.3,N/A,,Overcast,280,2013-02-20 01:53:00
9:14 PM,21.2,15.4,78,30.00,4.0,West,16.1,23.0,N/A,,Overcast,280,2013-02-20 02:14:00
9:34 PM,20.8,15.6,80,30.01,3.0,WNW,16.1,27.6,N/A,,Overcast,290,2013-02-20 02:34:00
9:53 PM,20.7,14.4,77,30.02,7.0,West,20.7,29.9,N/A,,Overcast,280,2013-02-20 02:53:00
10:14 PM,20.3,12.9,73,30.03,7.0,WNW,18.4,26.5,N/A,,Overcast,290,2013-02-20 03:14:00
10:34 PM,20.3,13.1,74,30.03,10.0,WNW,16.1,26.5,N/A,,Overcast,300,2013-02-20 03:34:00
10:53 PM,19.8,13.5,77,30.03,5.0,WNW,15.0,23.0,N/A,,Overcast,300,2013-02-20 03:53:00
11:14 PM,19.6,13.6,78,30.03,5.0,WNW,15.0,21.9,N/A,,Overcast,290,2013-02-20 04:14:00
11:33 PM,19.8,13.6,77,30.03,7.0,WNW,15.0,23.0,N/A,,Overcast,290,2013-02-20 04:33:00
11:54 PM,19.9,13.8,77,30.04,10.0,West,17.3,23.0,N/A,,Overcast,280,2013-02-20 04:54:00